DW7780 Weather Reports


time (UTC)temp
F
wind
direction
speed
knots
gust
knots
rain 1hr
in
rain 24hr
in
rain mn
in
humidity
%
barometer
mb
20260902084531 68 86 0.0 5.2 0.00 0.17 0.00 97 1018.2
20260902083031 68 117 0.9 7.0 0.00 0.17 0.00 97 1017.9
20260902081530 68 0 0.0 6.1 0.00 0.17 0.00 97 1017.9
20260902080034 69 0 0.9 6.1 0.00 0.17 0.00 97 1017.8
20260902074536 69 74 1.7 9.6 0.00 0.17 0.00 97 1017.6
20260902073032 69 0 0.0 5.2 0.00 0.17 0.00 97 1017.6
20260902071534 69 0 0.9 6.1 0.00 0.17 0.00 97 1017.4
20260902070033 69 0 0.0 3.5 0.00 0.17 0.00 97 1017.6
20260902064537 70 0 0.0 3.5 0.00 0.17 0.00 97 1017.4
20260902063035 70 0 0.0 3.5 0.00 0.17 0.00 97 1017.4
20260902061551 70 86 0.0 6.1 0.00 0.17 0.00 97 1017.2
20260902060040 71 0 0.0 7.0 0.00 0.17 0.00 97 1017.2
20260902054533 71 0 0.0 3.5 0.00 0.17 0.00 97 1017.3
20260902053032 71 74 0.0 6.1 0.00 0.17 0.00 97 1017.1
20260902051532 71 82 0.0 5.2 0.00 0.17 0.00 97 1017.3
20260902050034 71 88 1.7 7.8 0.00 0.17 0.00 97 1017.5
20260902044537 71 0 0.0 0.0 0.00 0.17 0.00 97 1017.6
20260902043032 72 0 0.0 0.0 0.00 0.17 0.00 97 1017.4
20260902041537 72 0 0.0 0.0 0.00 0.17 0.00 97 1017.5
20260902040038 72 0 0.0 0.0 0.00 0.17 0.00 97 1017.3
20260902034537 72 0 0.0 0.0 0.00 0.17 0.17 97 1017.2
20260902033032 72 0 0.0 0.0 0.00 0.17 0.17 97 1016.7
20260902031542 72 0 0.0 0.0 0.00 0.17 0.17 97 1016.6
20260902030033 73 0 0.0 0.0 0.00 0.17 0.17 96 1016.6
20260902024538 73 0 0.0 3.5 0.00 0.17 0.17 97 1016.4
20260902023031 73 102 0.9 7.0 0.00 0.17 0.17 97 1016.2
20260902021533 73 0 0.0 1.7 0.00 0.17 0.17 97 1016.0
20260902020037 73 0 0.0 0.0 0.00 0.17 0.17 97 1016.0
20260902014534 72 0 0.0 0.0 0.00 0.17 0.17 96 1015.4
20260902013032 72 0 0.0 0.9 0.02 0.17 0.17 95 1014.7
20260902011534 73 0 0.0 3.5 0.16 0.17 0.17 94 1014.5
20260902010035 73 0 0.0 3.5 0.16 0.17 0.17 93 1014.3
20260902004533 73 0 0.0 2.6 0.16 0.17 0.17 91 1014.1
20260902003038 76 242 0.0 11.3 0.13 0.14 0.14 89 1013.7
20260902001540 78 0 0.0 0.0 0.00 0.01 0.01 93 1013.5
20260902000037 78 0 0.0 0.0 0.00 0.01 0.01 92 1013.1
20260901234533 78 0 0.0 0.0 0.00 0.01 0.01 91 1013.4
20260901233035 78 0 0.0 0.0 0.00 0.01 0.01 91 1013.4
20260901231531 79 0 0.0 0.0 0.00 0.01 0.01 90 1012.9
20260901230033 79 0 0.0 0.0 0.00 0.01 0.01 89 1013.5
20260901224531 80 0 0.0 0.0 0.00 0.01 0.01 89 1013.1
20260901223032 81 0 0.0 0.0 0.00 0.01 0.01 87 1013.1
20260901221544 81 0 0.0 0.0 0.00 0.01 0.01 86 1013.1
20260901220031 82 0 0.0 0.0 0.00 0.01 0.01 86 1013.0
20260901214533 83 0 0.0 0.0 0.00 0.01 0.01 84 1013.4
20260901213032 84 0 0.0 0.0 0.00 0.01 0.01 83 1013.5
20260901211533 84 0 0.0 0.0 0.00 0.01 0.01 83 1013.2
20260901210031 85 0 0.0 1.7 0.00 0.01 0.01 81 1013.2
20260901204530 87 0 0.0 3.5 0.00 0.01 0.01 74 1013.4
20260901203031 86 0 0.0 0.0 0.00 0.01 0.01 75 1013.5
20260901201531 85 0 0.0 1.7 0.00 0.01 0.01 75 1013.5
20260901200038 85 0 0.0 0.0 0.00 0.01 0.01 76 1013.4
20260901194532 86 0 0.0 3.5 0.00 0.01 0.01 74 1013.8
20260901193034 86 0 0.0 5.2 0.00 0.01 0.01 72 1013.8
20260901191551 85 0 0.0 0.0 0.00 0.01 0.01 73 1013.8
20260901190034 85 0 0.0 3.5 0.00 0.01 0.01 75 1013.9
20260901184539 85 0 0.0 0.0 0.00 0.01 0.01 76 1014.1
20260901183045 84 0 0.0 0.0 0.00 0.01 0.01 76 1014.1
20260901181534 83 0 0.0 0.0 0.00 0.01 0.01 77 1014.2
20260901180031 83 0 0.0 0.0 0.00 0.01 0.01 78 1014.4
20260901174534 82 0 0.0 0.0 0.00 0.01 0.01 77 1014.4
20260901173031 81 0 0.0 0.0 0.00 0.01 0.01 82 1014.4
20260901171533 80 0 0.0 0.0 0.00 0.01 0.01 84 1014.6
20260901170035 79 0 0.0 0.0 0.00 0.01 0.01 85 1014.9
20260901164541 78 0 0.0 0.0 0.00 0.01 0.01 89 1015.3
20260901163032 78 0 0.0 0.0 0.00 0.01 0.01 90 1015.6
20260901161548 78 0 0.0 0.0 0.00 0.01 0.01 88 1015.9
20260901160032 78 0 0.0 0.0 0.00 0.01 0.01 90 1015.9
20260901154545 77 0 0.0 0.0 0.00 0.01 0.01 93 1015.8
20260901153033 77 0 0.0 0.0 0.00 0.01 0.01 92 1015.8
20260901151534 77 0 0.0 0.0 0.00 0.01 0.01 91 1015.9
20260901150039 77 0 0.0 1.7 0.00 0.01 0.01 91 1015.9
20260901144540 77 0 0.0 0.9 0.00 0.01 0.01 90 1015.8
20260901143034 76 0 0.0 1.7 0.00 0.01 0.01 91 1015.8
20260901141536 76 0 0.0 1.7 0.00 0.01 0.01 93 1015.9
20260901140032 75 0 0.0 0.9 0.00 0.01 0.01 96 1015.9
20260901134531 74 0 0.0 0.0 0.00 0.01 0.01 98 1015.8
20260901133035 73 0 0.0 0.0 0.00 0.01 0.01 98 1015.9
20260901131533 73 0 0.0 0.0 0.00 0.01 0.01 98 1015.9
20260901130031 72 0 0.0 0.0 0.00 0.01 0.01 98 1015.9
20260901124532 72 0 0.0 0.0 0.00 0.01 0.01 98 1016.2
20260901123032 71 0 0.0 0.0 0.00 0.01 0.01 98 1015.9
20260901121532 70 0 0.0 0.0 0.00 0.01 0.01 98 1015.9
20260901120033 70 0 0.0 0.0 0.00 0.01 0.01 98 1015.8
20260901114541 69 0 0.0 0.0 0.00 0.01 0.01 98 1016.0
20260901113031 69 0 0.0 0.0 0.00 0.01 0.01 97 1016.2
20260901111532 69 0 0.0 0.0 0.00 0.01 0.01 97 1016.2
20260901110033 69 0 0.0 0.0 0.00 0.01 0.01 97 1016.1
20260901104532 69 0 0.0 0.0 0.00 0.01 0.01 97 1016.1
20260901103030 69 0 0.0 0.0 0.00 0.01 0.01 97 1016.0
20260901101533 69 0 0.0 0.0 0.01 0.01 0.01 97 1016.0
20260901100031 69 0 0.0 0.0 0.01 0.01 0.01 97 1016.1
20260901094538 69 0 0.0 0.0 0.01 0.01 0.01 97 1016.0
20260901093033 69 0 0.0 0.0 0.00 0.00 0.00 97 1016.1
20260901091534 69 0 0.0 0.0 0.00 0.00 0.00 97 1015.9
20260901090035 69 0 0.0 0.0 0.00 0.00 0.00 97 1016.2